Home > Weather > Kalisz > Past weeks

Flag for Poland Past Weather in Kalisz, Poland — Yesterday and Last 2 Weeks

Now
69 °F

Overcast.


Feels Like: 69 °F
Forecast: 60 / 83 °F
Wind: 1 mph from Southeast

Location: Kalisz

Current Time: May 28, 2016 at 10:21:33 PM

Latest Report: May 28, 2016 at 9:00 PM


Visibility: 16 mi

Pressure: 29.92 "Hg

Humidity: 67%

Dew Point: 58 °F

Location of KaliszLocation

Past Weather in Kalisz — Graph

°F

Kalisz Temperature Yesterday

Maximum temperature yesterday: 74 °F (at 4:00 PM)
Minimum temperature yesterday: 53 °F (at 5:00 AM)
Average temperature yesterday: 65 °F

High & Low Weather Summary for the Past Weeks

 TemperatureHumidityPressure
High82 °F (May 23, 6:00 PM)100% (May 14, 4:00 AM)30.09 "Hg (May 14, 4:00 AM)
Low41 °F (May 16, 4:00 AM)28% (May 24, 2:00 PM)29.41 "Hg (May 13, 11:00 PM)
Average60 °F69%29.90 "Hg
* Reported May 13 9:00 PM — May 28 9:00 PM, Kalisz, Weather by CustomWeather, © 2016

Note: Actual official high and low records may vary slightly from our data, if they occured in-between our weather recording intervals... More about our weather records

Advertising

Kalisz Weather History for the Previous 24 Hours

Scroll right to see more
 ConditionsComfort  
Time TempWeatherWind HumidityBarometerVisibility
9:00 PM
Sat, May 28
69 °FOvercast.1 mph67%29.92 "Hg16 mi
8:00 PM71 °FOvercast.2 mph59%29.90 "Hg25 mi
3:00 PM76 °FThunderstorms. Overcast.6 mph46%29.92 "Hg19 mi
2:00 PM79 °FOvercast.3 mph42%29.93 "Hg15 mi
1:00 PM78 °FOvercast.3 mph44%29.94 "Hg16 mi
12:00 PM77 °FOvercast.5 mph48%29.96 "Hg13 mi
11:00 AM74 °FOvercast.3 mph55%29.97 "Hg14 mi
10:00 AM72 °FPartly sunny.3 mph63%29.98 "Hg8 mi
9:00 AM66 °FPartly sunny.3 mph74%29.98 "Hg7 mi
8:00 AM62 °FFog.3 mph82%29.98 "Hg5 mi
7:00 AM60 °FFog.2 mph88%29.99 "Hg4 mi
6:00 AM60 °FOvercast.3 mph91%29.99 "Hg4 mi
5:00 AM60 °FSprinkles. Overcast.2 mph88%30.00 "Hg4 mi
4:00 AM60 °FFog.1 mph80%30.01 "Hg5 mi
3:00 AM59 °FFog.2 mph81%30.01 "Hg4 mi
2:00 AM61 °FPassing clouds.2 mph71%30.00 "Hg7 mi
1:00 AM62 °FPassing clouds.2 mph67%30.01 "Hg7 mi
12:00 AM64 °FPassing clouds.3 mph65%30.01 "Hg8 mi
11:00 PM
Fri, May 27
65 °FPassing clouds.2 mph64%30.02 "Hg8 mi
10:00 PM66 °FPassing clouds.2 mph61%30.01 "Hg7 mi
Weather by CustomWeather, © 2016

See weather overviewHow to use our weather pages